Preview of NWS' New Version of Forecast
This preview is not operational and should not be used for support decisions.

Regional Weather Roundup (RWR)

Issued by National Weather Service (NWS)

                            
000
ASUS45 KSLC 200710
RWRUT 

UTAH REGIONAL WEATHER ROUNDUP
NATIONAL WEATHER SERVICE SALT LAKE CITY UT
100 AM MDT MON MAY 20 2019

UTZ001>011-023>025-200800-

NORTHERN UTAH
  
CITY           SKY/WX    TMP DP  RH WIND       PRES   REMARKS
BRIGHAM CITY   CLOUDY    48  36  63 S9        29.68S                  
HILL AFB       CLOUDY    46  37  71 S12       29.67S                  
LOGAN          CLOUDY    44  41  89 N7        29.66F                  
OGDEN          CLOUDY    47  36  65 S9        29.66S                  
SALT LAKE CITY CLOUDY    49  36  61 S10       29.66F                  
TOOELE VALLEY  CLOUDY    46  36  66 S13       29.66S                  
WENDOVER       LGT RAIN  45  41  86 S9        29.67                   
HEBER CITY     CLOUDY    36  32  87 W3        29.69F                  
WEST JORDAN    CLOUDY    44  38  80 S15       29.68F                  

$$

UTZ011>015-024>027-200800-

CENTRAL/NORTHEAST UTAH
  
CITY           SKY/WX    TMP DP  RH WIND       PRES   REMARKS
PROVO AIRPORT  MOCLDY    45  37  73 S6        29.71S                  
MOAB/CANYONLAN CLOUDY    48  39  71 SE6       29.73S                  
DELTA          MOCLDY    36  34  93 SE8       29.70S WCI  29          
PRICE          CLOUDY    39  39 100 CALM      29.73F                  
ROOSEVELT      FLURRIES  45  36  70 W10G16    29.77R                  
VERNAL         CLOUDY    45  40  82 CALM      29.73F                  

$$

UTZ013>016-019>022-027-200800-

SOUTHERN UTAH
  
CITY           SKY/WX    TMP DP  RH WIND       PRES   REMARKS
BRYCE CANYON   LGT SNOW  30  28  92 N6        29.79S FOG     WCI  24  
CEDAR CITY     CLOUDY    37  35  92 CALM      29.69F                  
MILFORD        MOCLDY    39  33  79 CALM      29.68S                  
ST GEORGE      CLOUDY    54  40  59 E6        29.66F                  
HANKSVILLE     CLOUDY    46  39  76 SE6       29.75F                  
BLANDING         N/A     40  38  95 E5        29.91F                  

$$

REGIONAL REPORTS     COLORADO/ARIZONA
  
CITY           SKY/WX    TMP DP  RH WIND       PRES   REMARKS
CRAIG, CO      LGT RAIN  41  37  86 SE6       29.81F                  
GRAND JUNCTION CLOUDY    46  41  82 N10       29.77F                  
RIFLE, CO      LGT RAIN  45  41  86 E9        29.81S                  
MONTROSE, CO   CLOUDY    45  36  70 E8        29.81F                  
CORTEZ, CO     CLOUDY    45  34  65 NW13      29.85S                  
COLORADO CITY  LGT RAIN  43  39  87 SE16G22   29.78R                  
PAGE, AZ       CLOUDY    51  32  48 W8G18     29.74S                  
GRAND CANYON   CLEAR     33  31  92 SE7       29.78F WCI  27          
KINGMAN, AZ    PTCLDY    51  35  54 SW14      29.72R                  
FLAGSTAFF, AZ  PTCLDY    36  34  92 S6        29.81F WCI  31          

$$

REGIONAL REPORTS    NEVADA/IDAHO/WYOMING
  
CITY           SKY/WX    TMP DP  RH WIND       PRES   REMARKS
LAS VEGAS, NV  CLOUDY    58  34  40 SW14G25   29.63F                  
ELY, NY        CLOUDY    34  33  96 SW3       29.70S                  
ELKO, NV       CLOUDY    41  37  86 W5        29.69S                  
POCATELLO, ID  CLOUDY    46  42  86 CALM      29.65S                  
BURLEY, ID     LGT RAIN  44  42  93 S5        29.63S                  
FORT BRIDGER,  LGT RAIN  39  39 100 W9        29.74S WCI  33          
EVANSTON, WY   FLURRIES  33  31  92 SE6       29.71F WCI  28          
ROCK SPRINGS,  CLOUDY    40  35  83 SE10G23   29.75S WCI  33          
KEMMERER, WY   MIX PCPN  34  32  93 N8        29.72F WCI  27          

$$